User: anonymous   Login
Location: Unspecified
(0.0000°N, 0.0000°E)
Time: 01:38:39
(UTC+00:00)
Language:

Tiros 1 - Orbit

View from above orbital plane
View from above orbital plane
View from above satellite
View from above satellite

Ground track
Ground track

The orbit data is extracted from the following two-line orbital elements,

1    29U 60002B   18170.42225718 -.00000132 +00000-0 +11375-4 0  9995
2    29 048.3784 148.8621 0024278 352.1815 007.8715 14.74250455110978
Epoch (UTC): 19 June 2018 10:08:03
Eccentricity: 0.0024278
inclination: 48.3784°
perigee height: 630 km
apogee height: 664 km
right ascension of ascending node: 148.8621°
argument of perigee: 352.1815°
revolutions per day: 14.74250455
mean anomaly at epoch: 7.8715°
orbit number at epoch: 11097

The dashed part of the orbit path shows where the satellite is in the earth's shadow,  

DLR